Location: Little Arabia
(41.4620°N, 81.7687°W)
Time: 19:42:45
(UTC+00:00)

Timation 2 Rocket - Pass Details

Date: 29 October 2020
Orbit: 904 x 1077 km, 70.0° (Epoch: 03 December)

Event Time Altitude Azimuth Distance (km) Brightness Sun altitude
Rises 22:46:28 0° 335° (NNW) 3,756 7.2 -4.7°
Reaches altitude 10° 22:49:02 10° 337° (NNW) 2,826 6.6 -5.1°
Maximum altitude 22:55:42 76° 63° (ENE) 1,087 4.2 -6.4°
Drops below altitude 10° 23:02:32 10° 150° (SSE) 2,896 6.3 -7.6°
Sets 23:05:11 0° 152° (SSE) 3,855 6.9 -8.1°
